q 0.93935 (2000.0) P Q
n 0.183663 Peri. 198.701 -0.029169 +0.982230
a 3.06517 Node 69.967 -0.890083 +0.058880
e 0.69354 Incl. 11.382 -0.454864 -0.178206
P 5.37
73P/Schwassmann-Wachmann AR
T 2006 June 6.844 TT MPC
q 0.93887 (2000.0) P Q
n 0.184017 Peri. 198.870 -0.028514 +0.982230
a 3.06124 Node 69.840 -0.889811 +0.059612
e 0.69330 Incl. 11.397 -0.455438 -0.177962
P 5.36
73P/Schwassmann-Wachmann AS
T 2006 June 6.330 TT MPC
q 0.93930 (2000.0) P Q
n 0.183891 Peri. 198.749 -0.029175 +0.982217
a 3.06264 Node 69.920 -0.889993 +0.058942
e 0.69330 Incl. 11.389 -0.455039 -0.178257
P 5.36
73P/Schwassmann-Wachmann AT
T 2006 June 6.226 TT MPC
q 0.93932 (2000.0) P Q
n 0.183887 Peri. 198.756 -0.029118 +0.982220
a 3.06268 Node 69.916 -0.889985 +0.058991
e 0.69330 Incl. 11.389 -0.455059 -0.178222
P 5.36
73P/Schwassmann-Wachmann AU
T 2006 June 8.093 TT MPC
q 0.93929 (2000.0) P Q
n 0.183896 Peri. 198.746 -0.029107 +0.982230
a 3.06259 Node 69.927 -0.890010 +0.058970
e 0.69330 Incl. 11.385 -0.455012 -0.178178
P 5.36
73P/Schwassmann-Wachmann AV
T 2006 June 6.490 TT MPC
q 0.93930 (2000.0) P Q
n 0.183892 Peri. 198.751 -0.028700 +0.982230
a 3.06263 Node 69.945 -0.890006 +0.059359
e 0.69330 Incl. 11.388 -0.455044 -0.178049
P 5.36
73P/Schwassmann-Wachmann AW
T 2006 June 7.766 TT MPC
q 0.93947 (2000.0) P Q
n 0.183843 Peri. 198.673 -0.029377 +0.982233
a 3.06318 Node 69.982 -0.890130 +0.058655
e 0.69330 Incl. 11.377 -0.454758 -0.178262
P 5.36
73P/Schwassmann-Wachmann AX
T 2006 June 9.533 TT MPC
q 0.93912 (2000.0) P Q
n 0.183944 Peri. 198.757 -0.029119 +0.982224
a 3.06205 Node 69.915 -0.889986 +0.058980
e 0.69330 Incl. 11.388 -0.455056 -0.178205
P 5.36
73P/Schwassmann-Wachmann AY
T 2006 June 8.761 TT MPC
q 0.93918 (2000.0) P Q
n 0.183927 Peri. 198.750 -0.029103 +0.982231
a 3.06223 Node 69.923 -0.890004 +0.058973
e 0.69330 Incl. 11.385 -0.455023 -0.178172
P 5.36
73P/Schwassmann-Wachmann AZ
T 2006 June 6.516 TT MPC
q 0.93962 (2000.0) P Q
n 0.183798 Peri. 198.644 -0.029536 +0.982243
a 3.06367 Node 70.002 -0.890185 +0.058459
e 0.69330 Incl. 11.371 -0.454641 -0.178275
P 5.36
73P/Schwassmann-Wachmann BA
T 2006 June 6.436 TT MPC
q 0.93976 (2000.0) P Q
n 0.183756 Peri. 198.588 -0.029772 +0.982248
a 3.06413 Node 70.042 -0.890279 +0.058183
e 0.69330 Incl. 11.364 -0.454441 -0.178333
P 5.36
73P/Schwassmann-Wachmann BB
T 2006 June 7.087 TT MPC
q 0.93912 (2000.0) P Q
n 0.183944 Peri. 198.807 -0.028839 +0.982219
a 3.06205 Node 69.882 -0.889901 +0.059294
e 0.69330 Incl. 11.395 -0.455241 -0.178129
P 5.36
73P/Schwassmann-Wachmann BC
T 2006 June 6.677 TT MPC
q 0.93912 (2000.0) P Q
n 0.183944 Peri. 198.816 -0.028808 +0.982211
a 3.06205 Node 69.876 -0.889882 +0.059349
e 0.69330 Incl. 11.398 -0.455281 -0.178153
P 5.36
73P/Schwassmann-Wachmann BD
T 2006 June 6.417 TT MPC
q 0.93998 (2000.0) P Q
n 0.183694 Peri. 198.503 -0.030474 +0.982253
a 3.06483 Node 70.085 -0.890414 +0.057446
e 0.69330 Incl. 11.352 -0.454130 -0.178548
P 5.37
73P/Schwassmann-Wachmann BE
T 2006 June 6.864 TT MPC
q 0.93902 (2000.0) P Q
n 0.183975 Peri. 198.861 -0.028633 +0.982203
a 3.06171 Node 69.841 -0.889801 +0.059568
e 0.69330 Incl. 11.405 -0.455450 -0.178125
P 5.36
73P/Schwassmann-Wachmann BF
T 2006 June 6.981 TT MPC
q 0.93942 (2000.0) P Q
n 0.183858 Peri. 198.661 -0.029734 +0.982225
a 3.06300 Node 69.974 -0.890140 +0.058331
e 0.69330 Incl. 11.377 -0.454716 -0.178414
P 5.36
73P/Schwassmann-Wachmann BG
T 2006 June 8.741 TT MPC
q 0.93915 (2000.0) P Q
n 0.183936 Peri. 198.750 -0.029059 +0.982235
a 3.06214 Node 69.925 -0.890008 +0.059002
e 0.69330 Incl. 11.384 -0.455018 -0.178136
P 5.36
73P/Schwassmann-Wachmann BH
T 2006 June 8.569 TT MPC
q 0.93874 (2000.0) P Q
n 0.184058 Peri. 198.947 -0.028712 +0.982205
a 3.06079 Node 69.752 -0.889657 +0.059543
e 0.69330 Incl. 11.410 -0.455725 -0.178121
P 5.35
73P/Schwassmann-Wachmann BI
T 2006 June 8.602 TT MPC
q 0.94146 (2000.0) P Q
n 0.183259 Peri. 197.763 -0.031703 +0.982376
a 3.06968 Node 70.737 -0.891713 +0.055451
e 0.69330 Incl. 11.252 -0.451490 -0.178500
P 5.38
73P/Schwassmann-Wachmann BJ
T 2006 June 8.669 TT MPC
q 0.93914 (2000.0) P Q
n 0.183941 Peri. 198.776 -0.028970 +0.982226
a 3.06209 Node 69.905 -0.889958 +0.059128
e 0.69330 Incl. 11.389 -0.455121 -0.178144
P 5.36
73P/Schwassmann-Wachmann BK
T 2006 June 8.884 TT MPC
q 0.93931 (2000.0) P Q
n 0.183891 Peri. 198.698 -0.029167 +0.982238
a 3.06264 Node 69.970 -0.890094 +0.058859
e 0.69330 Incl. 11.379 -0.454842 -0.178171
P 5.36
73P/Schwassmann-Wachmann BL
T 2006 June 8.886 TT MPC
q 0.93923 (2000.0) P Q
n 0.183914 Peri. 198.739 -0.029167 +0.982227
a 3.06239 Node 69.930 -0.890017 +0.058917
e 0.69330 Incl. 11.385 -0.454993 -0.178212
P 5.36
73P/Schwassmann-Wachmann BM
T 2006 June 8.939 TT MPC
q 0.93962 (2000.0) P Q
n 0.183798 Peri. 198.546 -0.029736 +0.982240
a 3.06367 Node 70.086 -0.890342 +0.058214
e 0.69330 Incl. 11.364 -0.454321 -0.178371
P 5.36
73P/Schwassmann-Wachmann BN
T 2006 June 8.203 TT MPC
q 0.93905 (2000.0) P Q
n 0.183967 Peri. 198.815 -0.028898 +0.982208
a 3.06180 Node 69.871 -0.889879 +0.059272
e 0.69330 Incl. 11.398 -0.455280 -0.178195
P 5.36
73P/Schwassmann-Wachmann BO
T 2006 June 8.259 TT MPC
q 0.93913 (2000.0) P Q
n 0.183941 Peri. 198.761 -0.029213 +0.982219
a 3.06208 Node 69.906 -0.889974 +0.058909
e 0.69330 Incl. 11.389 -0.455076 -0.178258
P 5.36
73P/Schwassmann-Wachmann BP
T 2006 June 8.302 TT MPC
q 0.93910 (2000.0) P Q
n 0.183952 Peri. 198.807 -0.028861 +0.982218
a 3.06196 Node 69.881 -0.889901 +0.059275
e 0.69330 Incl. 11.395 -0.455240 -0.178140
P 5.36
73P/Schwassmann-Wachmann BQ
T 2006 June 8.298 TT MPC
q 0.93900 (2000.0) P Q
n 0.183979 Peri. 198.862 -0.028708 +0.982206
a 3.06166 Node 69.836 -0.889800 +0.059491
e 0.69330 Incl. 11.404 -0.455447 -0.178137
P 5.36
73P/Schwassmann-Wachmann BR
T 2006 June 6.155 TT MPC
q 0.93921 (2000.0) P Q
n 0.183920 Peri. 198.775 -0.028900 +0.982227
a 3.06232 Node 69.910 -0.889962 +0.059192
e 0.69330 Incl. 11.389 -0.455119 -0.178117
P 5.36
73P/Schwassmann-Wachmann BS
T 2006 June 5.832 TT MPC
q 0.93918 (2000.0) P Q
n 0.183927 Peri. 198.814 -0.028679 +0.982210
a 3.06224 Node 69.885 -0.889886 +0.059475
e 0.69330 Incl. 11.399 -0.455281 -0.178119
P 5.36
